Location: Ash Shall?l al Awwal
(24.0167°N, 32.8667°E)
Time: 05:23:16
(UTC+00:00)

Lacrosse 4 Rocket - Pass Details

Date: 02 March 2021
Orbit: 537 x 620 km, 68.0° (Epoch: 12 April)

Event Time Altitude Azimuth Distance (km) Brightness Sun altitude
Rises 17:23:41 0° 203° (SSW) 2,769 5.2 -21.8°
Reaches altitude 10° 17:25:52 10° 204° (SSW) 1,887 4.3 -22.3°
Maximum altitude 17:30:07 79° 292° (WNW) 606 1.5 -23.2°
Enters shadow 17:31:14 49° 8° (N) 772 1.9 -23.5°
